This demonstration page uses our WeatherBlox Daily Observations layout. Learn more.

Hourly Observations for June 4, 2020

Temp ( °F °C ) Dew Point ( °F °C ) Humidity (%) Winds ( mph kmh ) Pressure ( in mb ) Visibility ( mi km ) Precip ( " mm )
12:15 am 00:15 Clear 64 17.6 61 16 90 90 NNW 3 6 29.78 1008 10 16.0934 0 0
12:35 am 00:35 Clear 63 17.4 60 15.6 89 89 W 6 9 29.78 1008 10 16.0934 0 0
12:55 am 00:55 Clear 63 17.4 61 16 92 92 NNW 5 7 29.78 1008 10 16.0934 0 0
1:15 am 01:15 Clear 62 16.5 60 15.5 94 94 NNE 5 7 29.79 1009 10 16.0934 0 0
1:35 am 01:35 Clear 62 16.7 61 15.9 95 95 NNE 3 6 29.79 1009 10 16.0934 0 0
1:55 am 01:55 Clear 62 16.9 60 15.7 93 93 Calm 29.77 1008 10 16.0934 0 0
2:15 am 02:15 Clear 62 16.4 59 15.1 92 92 Calm 29.78 1008 10 16.0934 0 0
2:35 am 02:35 Clear 61 16.2 60 15.4 95 95 Calm 29.78 1008 10 16.0934 0 0
2:55 am 02:55 Clear 60 15.7 59 14.8 94 94 Calm 29.77 1008 10 16.0934 0 0
3:15 am 03:15 Clear 60 15.4 58 14.4 94 94 Calm 29.79 1009 10 16.0934 0 0
3:35 am 03:35 Clear 61 16.3 59 15.2 93 93 Calm 29.78 1008 10 16.0934 0 0
3:55 am 03:55 Clear 61 16.2 59 15 93 93 Calm 29.78 1008 10 16.0934 0 0
4:15 am 04:15 Clear 60 15.8 58 14.3 91 91 Calm 29.77 1008 10 16.0934 0 0
4:35 am 04:35 Clear 61 15.9 59 14.8 93 93 Calm 29.78 1009 10 16.0934 0 0
4:55 am 04:55 Clear 61 16 58 14.5 91 91 SW 3 6 29.78 1008 10 16.0934 0 0
5:15 am 05:15 Clear 62 16.5 58 14.6 89 89 SW 5 7 29.78 1008 10 16.0934 0 0
5:35 am 05:35 Clear 62 16.7 58 14.5 87 87 SSW 5 7 29.79 1009 10 16.0934 0 0
5:55 am 05:55 Clear 62 16.5 58 14.3 87 87 SSW 5 7 29.79 1009 10 16.0934 0 0
6:15 am 06:15 Sunny 62 16.6 58 14.3 86 86 S 6 9 29.79 1009 10 16.0934 0 0
6:35 am 06:35 Sunny 62 16.8 58 14.5 86 86 SSW 6 9 29.78 1009 10 16.0934 0 0
6:55 am 06:55 Sunny 62 16.5 58 14.6 89 89 SW 5 7 29.79 1009 10 16.0934 0 0
7:15 am 07:15 Sunny 63 17.2 59 15 87 87 SSW 6 9 29.79 1009 10 16.0934 0 0
7:35 am 07:35 Sunny 65 18.3 60 15.3 83 83 SSW 9 15 29.79 1009 10 16.0934 0 0
7:55 am 07:55 Sunny 67 19.3 60 15.7 80 80 S 8 13 29.77 1008 10 16.0934 0 0
8:15 am 08:15 Sunny 68 20 60 15.8 77 77 SSW 9 15 29.78 1008 10 16.0934 0 0
8:35 am 08:35 Sunny 70 20.9 62 16.4 76 76 SSW 7 11 29.77 1008 10 16.0934 0 0
8:55 am 08:55 Sunny 71 21.7 61 16.2 71 71 SSW 8 13 29.76 1008 10 16.0934 0 0
9:15 am 09:15 Sunny 74 23.3 62 16.6 66 66 S 8 13 29.74 1007 10 16.0934 0 0
9:35 am 09:35 Sunny 76 24.7 59 15.1 55 55 S 12 19 29.72 1006 10 16.0934 0 0
9:55 am 09:55 Sunny 79 26 58 14.7 50 50 S 9 15 29.71 1006 10 16.0934 0 0
10:15 am 10:15 Sunny 80 26.8 58 14.2 46 46 S 14 22 29.7 1006 10 16.0934 0 0
10:35 am 10:35 Sunny 81 27.2 58 14.4 45 45 SSW 16 26 29.69 1005 10 16.0934 0 0
10:55 am 10:55 Sunny 82 27.6 58 14.5 45 45 S 10 17 29.69 1005 10 16.0934 0 0
11:15 am 11:15 Sunny 83 28.2 57 14 42 42 SSW 14 22 29.68 1005 10 16.0934 0 0
11:35 am 11:35 Sunny 84 29.1 56 13.2 38 38 SSW 14 22 29.67 1005 10 16.0934 0 0
11:55 am 11:55 Sunny 85 29.6 54 12.3 34 34 SSW 12 19 29.66 1004 10 16.0934 0 0
12:15 pm 12:15 Sunny 86 30.2 55 12.5 34 34 SSW 12 19 29.65 1004 10 16.0934 0 0
12:35 pm 12:35 Sunny 87 30.5 56 13.6 36 36 SW 8 13 29.64 1004 10 16.0934 0 0
12:55 pm 12:55 Sunny 88 30.9 56 13.5 35 35 S 10 17 29.64 1004 10 16.0934 0 0
1:15 pm 13:15 Sunny 88 31.3 55 13 33 33 SSW 12 19 29.64 1004 10 16.0934 0 0
1:35 pm 13:35 Sunny 89 31.6 56 13.4 33 33 SW 9 15 29.63 1003 10 16.0934 0 0
1:55 pm 13:55 Sunny 90 32 55 13 31 31 S 9 15 29.61 1003 10 16.0934 0 0
2:15 pm 14:15 Sunny 90 32.3 56 13.4 32 32 SSW 12 19 29.61 1003 10 16.0934 0 0
2:35 pm 14:35 Sunny 91 33 55 12.9 29 29 SSW 7 11 29.6 1002 10 16.0934 0 0
2:55 pm 14:55 Sunny 91 33 56 13.1 30 30 SW 8 13 29.6 1002 10 16.0934 0 0
3:15 pm 15:15 Sunny 92 33.5 55 12.7 28 28 SW 9 15 29.58 1002 10 16.0934 0 0
3:35 pm 15:35 Sunny 93 33.7 56 13.2 29 29 WSW 9 15 29.57 1001 10 16.0934 0 0
3:55 pm 15:55 Sunny 93 33.7 54 12.1 27 27 SW 7 11 29.57 1001 10 16.0934 0 0
4:15 pm 16:15 Sunny 93 34.1 50 10.1 23 23 WSW 7 11 29.57 1001 10 16.0934 0 0
4:35 pm 16:35 Sunny 94 34.5 52 10.9 24 24 WSW 10 17 29.55 1001 10 16.0934 0 0
4:55 pm 16:55 Sunny 94 34.5 53 11.6 25 25 WSW 6 9 29.55 1001 10 16.0934 0 0
5:15 pm 17:15 Sunny 94 34.6 50 10 22 22 WSW 9 15 29.54 1000 10 16.0934 0 0
5:35 pm 17:35 Sunny 94 34.7 52 11.2 24 24 SW 6 9 29.53 1000 10 16.0934 0 0
5:55 pm 17:55 Sunny 94 34.6 52 11.1 24 24 SSW 5 7 29.54 1000 10 16.0934 0 0
6:15 pm 18:15 Sunny 94 34.4 49 9.5 22 22 SSW 6 9 29.55 1001 10 16.0934 0 0
6:35 pm 18:35 Sunny 94 34.5 50 10.2 23 23 SSW 9 15 29.54 1000 10 16.0934 0 0
6:55 pm 18:55 Sunny 94 34.2 50 9.8 22 22 SSW 9 15 29.54 1000 10 16.0934 0 0
7:15 pm 19:15 Sunny 92 33.2 51 10.8 25 25 S 7 11 29.54 1000 10 16.0934 0 0
7:35 pm 19:35 Sunny 89 31.9 53 11.9 29 29 SSW 6 9 29.57 1001 10 16.0934 0 0
7:55 pm 19:55 Sunny 88 31.3 56 13.1 33 33 Calm 29.59 1002 10 16.0934 0 0
8:15 pm 20:15 Partly Cloudy 86 29.9 50 9.8 29 29 NW 18 30 29.64 1004 10 16.0934 0 0
8:35 pm 20:35 Partly Cloudy with Nearby Thunderstorms 84 28.7 49 9.3 30 30 N 18 30 29.6 1002 10 16.0934 0 0
8:55 pm 20:55 Sunny 84 28.8 47 8.1 27 27 NNW 7 11 29.59 1002 10 16.0934 0 0
9:15 pm 21:15 Clear 82 27.9 49 9.2 31 31 NNE 10 17 29.58 1002 10 16.0934 0 0
9:35 pm 21:35 Clear 82 27.7 49 9.5 32 32 NE 6 9 29.61 1003 10 16.0934 0 0
9:55 pm 21:55 Clear 80 26.7 51 10.5 36 36 E 7 11 29.63 1004 10 16.0934 0 0
10:15 pm 22:15 Partly Cloudy 80 26.6 49 9.7 35 35 ESE 12 19 29.63 1004 10 16.0934 0 0
10:35 pm 22:35 Partly Cloudy 79 26.1 50 10.2 37 37 ENE 8 13 29.65 1004 10 16.0934 0 0
10:55 pm 22:55 Partly Cloudy 80 26.9 51 10.6 36 36 SSE 6 9 29.67 1005 10 16.0934 0 0
11:15 pm 23:15 Mostly Cloudy with Light Rain 78 25.7 53 11.4 41 41 NE 10 17 29.66 1004 10 16.0934 0 0
11:35 pm 23:35 Partly Cloudy 80 26.6 51 10.8 37 37 N 3 6 29.65 1004 10 16.0934 0 0
11:55 pm 23:55 Clear 78 25.7 52 11.2 40 40 N 3 6 29.68 1005 10 16.0934 0 0

Powered by AerisWeather